Вернуться в каталог

STARLINK-31516

АктивенСвязьVLEO
NORAD 59221·PAYLOAD·🇺🇸 United States

Запущен Mar 11, 2024 с Vandenberg Space Force Base

Loading…

Ближайшие Пролёты (ближайшие 24 часа)

TLE

СвежийSource: CelesTrak SupGP

Эпоха: Sep 14, 2026, 22:40 UTC

1 59221C 24046W   26257.94493056 -.00010687  00000+0 -31584-3 0  2571
2 59221  53.1597 351.7772 0001204  86.2792  95.2779 15.34386902    15

Отслеживайте STARLINK-31516 в реальном времени с AllMySat

Download on the App Store